INTELSAT 10-02 (28358 NORAD) Tracking and Keplerian Element Data

This shows tracking and keplerian element data for the satellite.

Feedback or suggestion? Click here.




ElementValue
Catalog28358
NameINTELSAT 10-02
Epoch Orbit5314
Epoch Day349.51229913
Epoch Year2018
RAAN305.408
Inclination0.0122
Eccentricity9.88E-05
Argument of Perigee42.0202
Mean Anonmoly280.1494
Mean Motion1.00272641
Decay Rate2E-08
L11 28358U 04022A 18349.51229913 .00000002 00000-0 00000+0 0 9992
L22 28358 0.0122 305.4080 0000988 42.0202 280.1494 1.00272641 53142

Live tracking and technical data element details for INTELSAT 10-02 (NORAD 28358). INTELSAT 10-02 can be tracked NOW for your location showing map with azimuth and elevation plus other details from your city location.

Track the satellite on the map from your city or location and see movement details for azimuth, elevation, latitude, longitude, range, height, and movement on the map or in text.







IsCatalogInMostPopularTable: catalog: 28358, numindb: 61
Update: records affected: 1



GetName: 28358 INTELSAT 10-02

Hit Count: updated at: Sun, 16 Dec 2018 11:24:54 GMT